Regional Weather Roundup
Issued by NWS Little Rock, AR

Home | Current Version | Previous Version | Graphics & Text | Print | Product List | Glossary On
Versions: 1 2 3 4 5 6 7 8 9 10 11 12 13 14 15 16 17 18 19 20 21 22 23 24 25 26 27 28 29 30 31
000
ASUS44 KLZK 250105
RWRLZK

WEATHER ROUNDUP FOR ARKANSAS
NATIONAL WEATHER SERVICE LITTLE ROCK AR
800 PM CDT MON JUL 24 2017

NOTE: "FAIR" INDICATES FEW OR NO CLOUDS BELOW 12,000 FEET WITH NO
SIGNIFICANT WEATHER AND/OR OBSTRUCTIONS TO VISIBILITY.

ARZ001-003-010-029-250200-
NORTHWEST ARKANSAS

CITY           SKY/WX    TMP DP  RH WIND       PRES   REMARKS
FAYETTEVILLE   PTCLDY    81  76  84 SE3       29.97R HX  87
FORT SMITH     CLEAR     91  73  55 SW5       29.92R HX  99
HARRISON       PTCLDY    87  71  58 CALM      29.98R HX  93
BENTONVILLE    PTCLDY    88  70  55 SW6       29.98S HX  92
ROGERS         CLEAR     88  71  57 SE8       29.98R HX  94
SILOAM SPGS    CLEAR     88  70  55 SW7       29.96R HX  92
SPRINGDALE     CLEAR     86  72  62 S7        29.99R HX  92
$$

ARZ004-005-016-250200-
NORTH CENTRAL ARKANSAS

CITY           SKY/WX    TMP DP  RH WIND       PRES   REMARKS
BATESVILLE     CLOUDY    88  75  66 S6        29.93R HX  97
FLIPPIN        PTCLDY    91  66  43 CALM      29.92S HX  94
MTN HOME       CLEAR     86  70  58 CALM      29.94R HX  90
$$

ARZ040-041-250200-
WEST CENTRAL ARKANSAS

CITY           SKY/WX    TMP DP  RH WIND       PRES   REMARKS
MENA           PTCLDY    88  77  70 CALM      29.98S HX 100
MOUNT IDA      CLEAR     84  74  71 CALM      29.94R HX  91
$$

ARZ009-017-025-026-028-250200-
NORTHEAST ARKANSAS

CITY           SKY/WX    TMP DP  RH WIND       PRES   REMARKS
JONESBORO      CLEAR     86  78  77 SE7       29.92R HX  98
WALNUT RIDGE   CLEAR     86  75  70 SE6       29.92R HX  95
BLYTHEVILLE    CLEAR     85  78  80 S6        29.94R HX  96
$$

ARZ022-023-033-042-044-250200-
CENTRAL ARKANSAS

CITY           SKY/WX    TMP DP  RH WIND       PRES   REMARKS
LITTLE ROCK    PTCLDY    86  79  79 S7        29.93R HX  99
N LITTLE ROCK    N/A     88  77  70 S6        29.92R HX 100
JACKSONVILLE   CLEAR     88  79  74 SE5       29.93R HX 102
CONWAY           N/A     90  73  58 SE8       29.90R HX  98
SEARCY         CLEAR     86  81  85 S6        29.94  HX 102
HOT SPRINGS    CLEAR     89  76  65 SW7       29.95R HX 100
RUSSELLVILLE   CLEAR     85  74  69 CALM      29.91R HX  92
CLINTON        FAIR      86  77  74 CALM      29.93R HX  97
$$

ARZ036-250200-
EAST ARKANSAS

CITY           SKY/WX    TMP DP  RH WIND       PRES   REMARKS
WEST MEMPHIS   PTCLDY    83  78  85 S3        29.94R HX  93
$$

ARZ050-053-066-070-073-250200-
SOUTHWEST ARKANSAS

CITY           SKY/WX    TMP DP  RH WIND       PRES   REMARKS
ARKADELPHIA    FAIR      86  78  77 CALM      29.95R HX  98
CAMDEN         CLEAR     86  73  66 S3        29.95R HX  93
TEXARKANA      CLEAR     85  73  67 S3        29.95R HX  91
EL DORADO      CLEAR     84  75  74 S3        29.97R HX  92
DE QUEEN       CLEAR     87  76  69 S3        29.92S HX  97
$$

ARZ056-057-069-250200-
SOUTHEAST ARKANSAS

CITY           SKY/WX    TMP DP  RH WIND       PRES   REMARKS
PINE BLUFF     PTCLDY    85  79  82 S7        29.95R HX  98
STUTTGART      PTCLDY    88  64  45 SE6       29.96R HX  89
MONTICELLO     MOCLDY    84  76  76 SE5       29.97R HX  93

$$






USA.gov is the U.S. government's official web portal to all federal, state and local government web resources and services.